Allegheny County Airport
KAGC : now visible

Airfield :











YOU CAN JOIN US ON...

 
LOGIN :

Register | Disclaimer

   EN    FR    IT 

 









Legend :    VFR   Marginal VFR   IFR   Intensive IFR   Very Intensive IFR
Visi :
Ceiling :
>= 8 km
>= 3000ft
5 to 8 km
1000 to 3000 ft
1500m to 5 km
500 to 1000 ft
800 to 1500m
200 to 500 ft
< 800m
< 200 ft
Symbols :   Thunderstorms  Fog  Heavy snow  Heavy precipitations  Wind > 20 kt






- Airport Elevation : 1252 ft
- IATA code : AGC


KAGC - Allegheny County

CURRENT METAR :
  • 192253Z 00000KT 4SM HZ BKN029 OVC046 05/02 A2986 RMK AO2 SLP123 T00500022

EXPIRED METARs :
  • 192153Z 17003KT 4SM HZ BKN017 OVC023 05/02 A2984 RMK AO2 SLP119 T00500017
  • 192053Z 00000KT 3SM HZ OVC016 06/02 A2983 RMK AO2 SLP114 T00560017 53008
  • 191953Z 00000KT 3SM HZ OVC017 06/02 A2981 RMK AO2 SLP108 T00560017

TAF KAGC
Valid from the 19 at 21:00 until the 20 at 18:00 UTC


192108Z 1921/2018 23002KT 3SM BR OVC015
FM201000 29004KT 5SM BR OVC007
FM201500 30006KT P6SM OVC015



MET'MAP, your aeronautical weather chart ! - Copyright ORBIFLY December 2007 - Disclaimer

ORBIFLY MET'MAP TEAM :

Programming & Development : Alexandra Zaïnal
Concept & Development : Baudouin d'Aumeries
Co-Development & Prog : Marc-Olivier Méhu
Technical & hardware support : Manuel Goepfert

Contact : metmap@orbifly.com




SOURCES & CREDITS :

   NOAA       Earth
Advisory